Torna al catalogo

THOR ABLESTAR DEB

AttivoLEO
NORAD 126·DEBRIS·🇺🇸 United States

Lanciato Jun 29, 1961 da Cape Canaveral Space Force Station

Loading…

Prossimi Passaggi (prossime 24 ore)

TLE

AggiornatoSource: Space-Track

Epoca: Sep 9, 2026, 15:48 UTC

1 00126U 61015L   26252.65887041  .00000785  00000-0  24528-3 0  9992
2 00126  66.7069 227.4895 0061739 199.5525 160.3213 14.45037517376801

Traccia THOR ABLESTAR DEB in tempo reale con AllMySat

Download on the App Store